Weather History for Bloomington, IN

Change the Weather History Date:

Saturday, March 8, 2014

  Actual Average Record
Temperature  
Mean Temperature 40 °F 40 °F  
Max Temperature 51 °F 51 °F 73 °F (2002)
Min Temperature 28 °F 29 °F 15 °F (2008)
Degree Days  
Heating Degree Days 25 25  
Month to date heating degree days 279 212  
Since 1 July heating degree days 4841 4280  
Cooling Degree Days 0 0  
Month to date cooling degree days 0 0  
Year to date cooling degree days 0 0  
Moisture  
Dew Point 31 °F    
Average Humidity 66    
Maximum Humidity 82    
Minimum Humidity 50    
Precipitation  
Precipitation 0.00 in 0.10 in 1.83 in (2006)
Month to date precipitation 0.34 0.70  
Year to date precipitation 4.99 6.77  
Sea Level Pressure  
Sea Level Pressure 30.10 in    
Wind  
Wind Speed 7 mph (NW)    
Max Wind Speed 18 mph    
Max Gust Speed 22 mph    
Visibility 7 miles    
Events      
T = Trace of Precipitation, MM = Missing Value Source: NWS Daily Summary

Daily Weather History Graph

Daily Weather History Graph

Search for Another Location

Airport:

Trip Planner

Search our weather history database for the weather conditions in past years. The results will help you decide how hot, cold, wet, or windy it might be!

Date:

Astronomy

Mar. 08, 2014 Rise Set
Actual Time 7:08 AM EST 6:46 PM EST
Civil Twilight 6:41 AM EST 7:13 PM EST
Nautical Twilight 6:11 AM EST 7:44 PM EST
Astronomical Twilight 5:39 AM EST 8:15 PM EST
Moon 11:52 AM EST (3/8) 1:41 AM EST (3/8)
Length of Visible Light 12h 31m
Length of Day
11h 37m
First Quarter, 51% of the Moon is Illuminated
Mar 8
First Quarter
Mar 16
Full
Mar 23
Last Quarter
Mar 30
New
Apr 7
First Quarter

Hourly Weather History & Observations

Time (EST) Temp. Windchill Dew Point Humidity Pressure Visibility Wind Dir Wind Speed Gust Speed Precip Events Conditions
12:53 AM 41.0 °F 38.0 °F 33.1 °F 73% 29.99 in 8.0 mi SW 4.6 mph - N/A   Clear
1:53 AM 39.0 °F 35.7 °F 33.1 °F 79% 29.98 in 6.0 mi South 4.6 mph - N/A   Haze
2:53 AM 39.0 °F 35.7 °F 32.0 °F 76% 29.99 in 8.0 mi West 4.6 mph - N/A   Clear
3:53 AM 35.1 °F 28.6 °F 30.0 °F 82% 29.99 in 7.0 mi WSW 8.1 mph - N/A   Clear
4:53 AM 37.9 °F 33.5 °F 32.0 °F 79% 30.00 in 7.0 mi WSW 5.8 mph - N/A   Clear
5:53 AM 37.0 °F 31.6 °F 30.9 °F 79% 30.00 in 7.0 mi WSW 6.9 mph - N/A   Clear
6:53 AM 37.9 °F 33.5 °F 30.9 °F 76% 30.03 in 7.0 mi WSW 5.8 mph - N/A   Clear
7:53 AM 37.9 °F 33.5 °F 30.9 °F 76% 30.04 in 6.0 mi WSW 5.8 mph - N/A   Haze
8:53 AM 39.0 °F 35.7 °F 32.0 °F 76% 30.06 in 6.0 mi SW 4.6 mph - N/A   Haze
9:53 AM 42.1 °F 37.7 °F 32.0 °F 67% 30.06 in 7.0 mi WSW 6.9 mph - N/A   Partly Cloudy
10:53 AM 44.1 °F 41.5 °F 33.1 °F 65% 30.06 in 8.0 mi SSW 4.6 mph - N/A   Mostly Cloudy
11:53 AM 46.9 °F - 32.0 °F 56% 30.06 in 9.0 mi Calm Calm - N/A   Overcast
12:53 PM 50.0 °F - 33.1 °F 52% 30.07 in 9.0 mi North 5.8 mph - N/A   Overcast
1:53 PM 51.1 °F - 33.1 °F 50% 30.05 in 10.0 mi West 5.8 mph - N/A   Scattered Clouds
2:53 PM 50.0 °F - 33.1 °F 52% 30.05 in 9.0 mi NW 6.9 mph - N/A   Overcast
3:53 PM 46.0 °F 40.6 °F 35.1 °F 66% 30.07 in 4.0 mi North 11.5 mph - N/A   Haze
4:43 PM 44.1 °F 37.1 °F 35.1 °F 71% 30.07 in 2.5 mi North 15.0 mph - N/A   Haze
4:53 PM 43.0 °F 36.4 °F 35.1 °F 74% 30.09 in 2.5 mi North 12.7 mph - N/A   Haze
5:12 PM 42.1 °F 35.2 °F 33.1 °F 70% 30.08 in 3.0 mi North 12.7 mph - N/A   Haze
5:53 PM 39.9 °F 31.8 °F 32.0 °F 73% 30.13 in 3.0 mi North 15.0 mph - N/A   Haze
6:53 PM 36.0 °F 28.0 °F 30.9 °F 82% 30.16 in 4.0 mi North 11.5 mph - N/A   Haze
7:05 PM 36.0 °F 27.5 °F 30.0 °F 79% 30.15 in 4.0 mi North 12.7 mph - N/A   Haze
7:32 PM 35.1 °F 27.9 °F 28.9 °F 78% 30.16 in 5.0 mi North 9.2 mph - N/A   Haze
7:41 PM 35.1 °F 27.4 °F 28.9 °F 78% 30.16 in 5.0 mi North 10.4 mph - N/A   Haze
7:53 PM 35.1 °F 27.9 °F 28.9 °F 78% 30.18 in 5.0 mi North 9.2 mph - N/A   Haze
8:26 PM 34.0 °F 26.0 °F 27.0 °F 75% 30.18 in 8.0 mi North 10.4 mph 17.3 mph N/A   Overcast
8:53 PM 33.1 °F 26.1 °F 27.0 °F 78% 30.21 in 10.0 mi NNW 8.1 mph - N/A   Overcast
9:33 PM 33.1 °F 24.9 °F 25.0 °F 72% 30.20 in 10.0 mi North 10.4 mph - N/A   Overcast
9:53 PM 32.0 °F 23.0 °F 24.1 °F 73% 30.23 in 10.0 mi North 11.5 mph 21.9 mph N/A   Overcast
10:53 PM 30.0 °F 23.2 °F 23.0 °F 75% 30.24 in 10.0 mi NNW 6.9 mph - N/A   Partly Cloudy
11:53 PM 28.0 °F 20.8 °F 21.9 °F 78% 30.25 in 10.0 mi North 6.9 mph - N/A   Clear